Time,TemperatureF,DewpointF,PressureIn,WindDirection,WindDirectionDegrees,WindSpeedMPH,WindSpeedGustMPH,Humidity,HourlyPrecipIn,Conditions,Clouds,dailyrainin,SoftwareType,DateUTC
2013-01-19 00:02:00,42.0,14.0,30.30,SE,143,4.0,5.0,31,0.00,,,0.00,,2013-01-19 07:02:00,
2013-01-19 00:11:00,42.0,14.0,30.30,SE,143,4.0,5.0,31,0.00,,,0.00,,2013-01-19 07:11:00,
2013-01-19 00:22:00,41.0,14.0,30.29,SSE,159,3.0,5.0,33,0.00,,,0.00,,2013-01-19 07:22:00,
2013-01-19 00:32:00,41.0,14.0,30.29,South,176,3.0,4.0,33,0.00,,,0.00,,2013-01-19 07:32:00,
2013-01-19 00:42:00,41.0,14.0,30.29,South,176,3.0,4.0,33,0.00,,,0.00,,2013-01-19 07:42:00,
2013-01-19 00:52:00,43.0,14.0,30.29,SE,140,4.0,6.0,31,0.00,,,0.00,,2013-01-19 07:52:00,
2013-01-19 01:02:00,42.0,14.0,30.29,SE,136,3.0,5.0,31,0.00,,,0.00,,2013-01-19 08:02:00,
2013-01-19 01:11:00,42.0,14.0,30.29,SE,136,3.0,5.0,31,0.00,,,0.00,,2013-01-19 08:11:00,
2013-01-19 01:22:00,42.0,14.0,30.29,SE,146,5.0,6.0,32,0.00,,,0.00,,2013-01-19 08:22:00,
2013-01-19 01:32:00,42.0,14.0,30.29,SE,143,4.0,8.0,32,0.00,,,0.00,,2013-01-19 08:32:00,
2013-01-19 01:42:00,42.0,14.0,30.29,SE,143,4.0,8.0,32,0.00,,,0.00,,2013-01-19 08:42:00,
2013-01-19 01:53:00,41.0,14.0,30.29,ESE,122,0.0,3.0,33,0.00,,,0.00,,2013-01-19 08:53:00,
2013-01-19 02:02:00,41.0,15.0,30.29,ESE,120,2.0,4.0,35,0.00,,,0.00,,2013-01-19 09:02:00,
2013-01-19 02:32:00,41.0,15.0,30.30,ESE,115,1.0,4.0,35,0.00,,,0.00,,2013-01-19 09:32:00,
2013-01-19 02:42:00,41.0,15.0,30.30,ESE,115,1.0,4.0,35,0.00,,,0.00,,2013-01-19 09:42:00,
2013-01-19 02:52:00,41.0,16.0,30.30,SE,128,2.0,5.0,36,0.00,,,0.00,,2013-01-19 09:52:00,
2013-01-19 03:01:00,41.0,16.0,30.30,SE,128,2.0,5.0,36,0.00,,,0.00,,2013-01-19 10:01:00,
2013-01-19 03:12:00,41.0,16.0,30.30,SE,128,2.0,5.0,36,0.00,,,0.00,,2013-01-19 10:12:00,
2013-01-19 03:22:00,43.0,16.0,30.30,SE,143,1.0,3.0,33,0.00,,,0.00,,2013-01-19 10:22:00,
2013-01-19 03:32:00,43.0,15.0,30.29,ESE,122,0.0,0.0,32,0.00,,,0.00,,2013-01-19 10:32:00,
2013-01-19 03:52:00,41.0,15.0,30.29,SE,141,0.0,4.0,34,0.00,,,0.00,,2013-01-19 10:52:00,
2013-01-19 04:02:00,42.0,15.0,30.29,SE,146,4.0,5.0,33,0.00,,,0.00,,2013-01-19 11:02:00,
2013-01-19 05:53:00,40.0,17.0,30.31,SE,128,1.0,4.0,39,0.00,,,0.00,,2013-01-19 12:53:00,
2013-01-19 06:02:00,41.0,18.0,30.31,ESE,117,5.0,8.0,39,0.00,,,0.00,,2013-01-19 13:02:00,
2013-01-19 06:22:00,41.0,17.0,30.31,SE,137,4.0,7.0,38,0.00,,,0.00,,2013-01-19 13:22:00,
2013-01-19 06:32:00,41.0,17.0,30.31,ESE,122,4.0,7.0,38,0.00,,,0.00,,2013-01-19 13:32:00,
2013-01-19 06:42:00,41.0,17.0,30.31,ESE,122,4.0,7.0,38,0.00,,,0.00,,2013-01-19 13:42:00,
2013-01-19 06:53:00,41.0,17.0,30.31,East,96,2.0,6.0,38,0.00,,,0.00,,2013-01-19 13:53:00,
2013-01-19 07:02:00,41.0,17.0,30.32,ESE,118,4.0,7.0,38,0.00,,,0.00,,2013-01-19 14:02:00,
2013-01-19 07:22:00,41.0,17.0,30.32,SE,131,2.0,5.0,37,0.00,,,0.00,,2013-01-19 14:22:00,
2013-01-19 07:33:00,41.0,16.0,30.33,SE,127,1.0,6.0,36,0.00,,,0.00,,2013-01-19 14:33:00,
2013-01-19 07:53:00,42.0,17.0,30.33,ESE,109,2.0,5.0,36,0.00,,,0.00,,2013-01-19 14:53:00,
2013-01-19 08:02:00,42.0,16.0,30.33,SE,138,5.0,8.0,35,0.00,,,0.00,,2013-01-19 15:02:00,
2013-01-19 08:22:00,45.0,17.0,30.34,East,98,1.0,3.0,32,0.00,,,0.00,,2013-01-19 15:22:00,
2013-01-19 08:32:00,46.0,17.0,30.35,East,91,0.0,0.0,31,0.00,,,0.00,,2013-01-19 15:32:00,
2013-01-19 08:53:00,47.0,16.0,30.35,ESE,110,4.0,5.0,29,0.00,,,0.00,,2013-01-19 15:53:00,
2013-01-19 09:02:00,48.0,16.0,30.35,East,92,4.0,8.0,28,0.00,,,0.00,,2013-01-19 16:02:00,
2013-01-19 09:22:00,49.0,17.0,30.37,East,93,5.0,10.0,28,0.00,,,0.00,,2013-01-19 16:22:00,
2013-01-19 09:32:00,49.0,17.0,30.37,ENE,75,7.0,9.0,28,0.00,,,0.00,,2013-01-19 16:32:00,
2013-01-19 09:42:00,49.0,17.0,30.37,ENE,75,7.0,9.0,28,0.00,,,0.00,,2013-01-19 16:42:00,
2013-01-19 09:53:00,50.0,17.0,30.37,East,91,6.0,9.0,27,0.00,,,0.00,,2013-01-19 16:53:00,
2013-01-19 10:02:00,50.0,16.0,30.38,East,83,4.0,7.0,26,0.00,,,0.00,,2013-01-19 17:02:00,
2013-01-19 10:12:00,50.0,16.0,30.38,East,83,4.0,7.0,26,0.00,,,0.00,,2013-01-19 17:12:00,
2013-01-19 10:33:00,53.0,17.0,30.38,East,84,5.0,7.0,24,0.00,,,0.00,,2013-01-19 17:33:00,
2013-01-19 10:43:00,53.0,17.0,30.38,East,84,5.0,7.0,24,0.00,,,0.00,,2013-01-19 17:43:00,
2013-01-19 10:54:00,54.0,17.0,30.38,NE,44,5.0,8.0,23,0.00,,,0.00,,2013-01-19 17:54:00,
2013-01-19 11:03:00,55.0,17.0,30.37,ENE,65,6.0,8.0,22,0.00,,,0.00,,2013-01-19 18:03:00,
2013-01-19 11:12:00,55.0,17.0,30.37,ENE,65,6.0,8.0,22,0.00,,,0.00,,2013-01-19 18:12:00,
2013-01-19 11:23:00,56.0,18.0,30.37,ENE,70,5.0,8.0,22,0.00,,,0.00,,2013-01-19 18:23:00,
2013-01-19 11:32:00,56.0,17.0,30.36,ENE,60,7.0,9.0,21,0.00,,,0.00,,2013-01-19 18:32:00,
2013-01-19 11:43:00,56.0,17.0,30.36,ENE,60,7.0,9.0,21,0.00,,,0.00,,2013-01-19 18:43:00,
2013-01-19 11:56:00,58.0,16.0,30.36,East,96,3.0,6.0,19,0.00,,,0.00,,2013-01-19 18:56:00,
2013-01-19 12:03:00,58.0,16.0,30.36,East,96,3.0,6.0,19,0.00,,,0.00,,2013-01-19 19:03:00,
2013-01-19 12:23:00,60.0,16.0,30.34,ENE,71,1.0,6.0,18,0.00,,,0.00,,2013-01-19 19:23:00,
2013-01-19 12:33:00,61.0,16.0,30.33,East,83,3.0,5.0,17,0.00,,,0.00,,2013-01-19 19:33:00,
2013-01-19 12:48:00,61.0,16.0,30.33,East,83,3.0,5.0,17,0.00,,,0.00,,2013-01-19 19:48:00,
2013-01-19 12:55:00,62.0,17.0,30.31,NE,54,0.0,5.0,17,0.00,,,0.00,,2013-01-19 19:55:00,
2013-01-19 13:03:00,62.0,17.0,30.30,NE,46,2.0,5.0,17,0.00,,,0.00,,2013-01-19 20:03:00,
2013-01-19 13:12:00,62.0,17.0,30.30,NE,46,2.0,5.0,17,0.00,,,0.00,,2013-01-19 20:12:00,
2013-01-19 13:23:00,64.0,17.0,30.29,East,100,0.0,3.0,16,0.00,,,0.00,,2013-01-19 20:23:00,
2013-01-19 13:33:00,65.0,16.0,30.29,ESE,103,1.0,7.0,15,0.00,,,0.00,,2013-01-19 20:33:00,
2013-01-19 13:55:00,66.0,19.0,30.28,NE,47,0.0,6.0,16,0.00,,,0.00,,2013-01-19 20:55:00,
2013-01-19 14:02:00,66.0,19.0,30.28,NNE,26,2.0,6.0,16,0.00,,,0.00,,2013-01-19 21:02:00,
2013-01-19 14:22:00,66.0,21.0,30.28,North,6,1.0,6.0,18,0.00,,,0.00,,2013-01-19 21:22:00,
2013-01-19 14:33:00,66.0,24.0,30.27,NW,319,2.0,7.0,20,0.00,,,0.00,,2013-01-19 21:33:00,
2013-01-19 14:44:00,66.0,24.0,30.27,NW,319,2.0,7.0,20,0.00,,,0.00,,2013-01-19 21:44:00,
2013-01-19 14:58:00,67.0,29.0,30.27,WNW,295,1.0,6.0,24,0.00,,,0.00,,2013-01-19 21:58:00,
2013-01-19 15:12:00,67.0,27.0,30.27,NNE,30,4.0,9.0,22,0.00,,,0.00,,2013-01-19 22:12:00,
2013-01-19 15:23:00,67.0,28.0,30.27,ENE,68,5.0,8.0,23,0.00,,,0.00,,2013-01-19 22:23:00,
2013-01-19 15:33:00,67.0,27.0,30.27,NE,47,2.0,4.0,22,0.00,,,0.00,,2013-01-19 22:33:00,
2013-01-19 15:43:00,67.0,27.0,30.27,NE,47,2.0,4.0,22,0.00,,,0.00,,2013-01-19 22:43:00,
2013-01-19 16:13:00,67.0,26.0,30.26,ESE,117,0.0,6.0,21,0.00,,,0.00,,2013-01-19 23:13:00,
2013-01-19 16:23:00,67.0,25.0,30.27,NE,44,4.0,6.0,20,0.00,,,0.00,,2013-01-19 23:23:00,
2013-01-19 16:32:00,67.0,25.0,30.26,WSW,239,0.0,0.0,20,0.00,,,0.00,,2013-01-19 23:32:00,
2013-01-19 16:43:00,67.0,25.0,30.26,WSW,239,0.0,0.0,20,0.00,,,0.00,,2013-01-19 23:43:00,
2013-01-19 17:02:00,67.0,23.0,30.26,WNW,303,0.0,0.0,19,0.00,,,0.00,,2013-01-20 00:02:00,
2013-01-19 17:13:00,67.0,23.0,30.26,NNW,330,0.0,1.0,19,0.00,,,0.00,,2013-01-20 00:13:00,
2013-01-19 17:23:00,67.0,23.0,30.26,North,5,0.0,2.0,19,0.00,,,0.00,,2013-01-20 00:23:00,
2013-01-19 17:33:00,66.0,24.0,30.27,NW,316,0.0,0.0,20,0.00,,,0.00,,2013-01-20 00:33:00,
2013-01-19 17:44:00,66.0,24.0,30.27,NW,316,0.0,0.0,20,0.00,,,0.00,,2013-01-20 00:44:00,
2013-01-19 17:55:00,65.0,23.0,30.27,North,349,0.0,0.0,20,0.00,,,0.00,,2013-01-20 00:55:00,
2013-01-19 18:02:00,64.0,23.0,30.27,NE,43,0.0,5.0,21,0.00,,,0.00,,2013-01-20 01:02:00,
2013-01-19 18:13:00,64.0,23.0,30.27,NE,43,0.0,5.0,21,0.00,,,0.00,,2013-01-20 01:13:00,
2013-01-19 18:22:00,61.0,22.0,30.27,NW,323,0.0,0.0,22,0.00,,,0.00,,2013-01-20 01:22:00,
2013-01-19 18:43:00,60.0,21.0,30.28,WNW,298,0.0,0.0,22,0.00,,,0.00,,2013-01-20 01:43:00,
2013-01-19 19:12:00,57.0,21.0,30.29,East,89,0.0,1.0,24,0.00,,,0.00,,2013-01-20 02:12:00,
2013-01-19 19:23:00,58.0,19.0,30.30,NE,34,0.0,0.0,22,0.00,,,0.00,,2013-01-20 02:23:00,
2013-01-19 19:33:00,57.0,19.0,30.30,WNW,283,0.0,0.0,22,0.00,,,0.00,,2013-01-20 02:33:00,
2013-01-19 19:42:00,57.0,19.0,30.30,WNW,283,0.0,0.0,22,0.00,,,0.00,,2013-01-20 02:42:00,
2013-01-19 19:57:00,55.0,17.0,30.30,SSW,205,0.0,0.0,22,0.00,,,0.00,,2013-01-20 02:57:00,
2013-01-19 20:03:00,55.0,18.0,30.30,South,191,0.0,0.0,23,0.00,,,0.00,,2013-01-20 03:03:00,
2013-01-19 20:12:00,55.0,18.0,30.30,South,191,0.0,0.0,23,0.00,,,0.00,,2013-01-20 03:12:00,
2013-01-19 20:23:00,54.0,17.0,30.31,SSE,160,0.0,0.0,23,0.00,,,0.00,,2013-01-20 03:23:00,
2013-01-19 20:33:00,55.0,17.0,30.31,WSW,240,0.0,0.0,22,0.00,,,0.00,,2013-01-20 03:33:00,
2013-01-19 20:43:00,55.0,17.0,30.31,WSW,240,0.0,0.0,22,0.00,,,0.00,,2013-01-20 03:43:00,
2013-01-19 20:55:00,54.0,16.0,30.32,South,183,0.0,0.0,22,0.00,,,0.00,,2013-01-20 03:55:00,
2013-01-19 21:02:00,54.0,15.0,30.32,SSW,199,0.0,0.0,21,0.00,,,0.00,,2013-01-20 04:02:00,
2013-01-19 21:13:00,54.0,15.0,30.32,SSW,199,0.0,0.0,21,0.00,,,0.00,,2013-01-20 04:13:00,
2013-01-19 21:23:00,54.0,16.0,30.32,SSW,211,0.0,0.0,22,0.00,,,0.00,,2013-01-20 04:23:00,
2013-01-19 21:32:00,53.0,15.0,30.32,SW,217,0.0,0.0,22,0.00,,,0.00,,2013-01-20 04:32:00,
2013-01-19 21:42:00,53.0,15.0,30.32,SW,217,0.0,0.0,22,0.00,,,0.00,,2013-01-20 04:42:00,
2013-01-19 22:01:00,49.0,16.0,30.32,SSE,167,0.0,0.0,26,0.00,,,0.00,,2013-01-20 05:01:00,
2013-01-19 22:12:00,49.0,16.0,30.32,SSE,167,0.0,0.0,26,0.00,,,0.00,,2013-01-20 05:12:00,
2013-01-19 22:22:00,48.0,16.0,30.32,SSW,193,0.0,0.0,28,0.00,,,0.00,,2013-01-20 05:22:00,
2013-01-19 22:32:00,50.0,16.0,30.32,SSW,212,0.0,0.0,26,0.00,,,0.00,,2013-01-20 05:32:00,
2013-01-19 22:53:00,50.0,17.0,30.32,South,190,0.0,0.0,27,0.00,,,0.00,,2013-01-20 05:53:00,
2013-01-19 23:02:00,50.0,16.0,30.32,SSE,157,0.0,0.0,26,0.00,,,0.00,,2013-01-20 06:02:00,
2013-01-19 23:11:00,50.0,16.0,30.32,SSE,157,0.0,0.0,26,0.00,,,0.00,,2013-01-20 06:11:00,
2013-01-19 23:22:00,47.0,16.0,30.32,SSE,158,0.0,0.0,29,0.00,,,0.00,,2013-01-20 06:22:00,
2013-01-19 23:32:00,46.0,16.0,30.32,South,185,0.0,0.0,30,0.00,,,0.00,,2013-01-20 06:32:00,
2013-01-19 23:42:00,46.0,16.0,30.32,South,185,0.0,0.0,30,0.00,,,0.00,,2013-01-20 06:42:00,
2013-01-19 23:52:00,49.0,16.0,30.32,SE,124,2.0,4.0,27,0.00,,,0.00,,2013-01-20 06:52:00,